Location: Sungai Anya
(2.6167°N, 114.0500°E)
Time: 19:33:25
(UTC+00:00)

SJ-11-01 - Pass Details

Date: 19 October 2021
Orbit: 684 x 700 km, 97.9° (Epoch: 08 December)

Event Time Altitude Azimuth Distance (km) Brightness Sun altitude
Rises 11:19:07 0° 171° (S) 3,043 7.6 -17.8°
Reaches altitude 10° 11:21:21 10° 173° (S) 2,127 6.8 -18.3°
Maximum altitude 11:26:00 76° 258° (WSW) 708 4.4 -19.5°
Drops below altitude 10° 11:30:38 10° 344° (NNW) 2,124 6.9 -20.6°
Sets 11:32:53 0° 346° (NNW) 3,040 7.7 -21.2°
